W4RJF Weather Reports


Display with metric or nautical units.
time (UTC)temp
F
wind
direction
speed
MPH
gust
MPH
rain 1hr
in
rain 24hr
in
rain mn
in
humidity
%
barometer
mb
20260507022509 73 196 0.0 2.0 0.00 0.01 0.01 70 1012.3
20260507022008 72 200 0.0 2.0 0.00 0.01 0.01 70 1012.3
20260507021526 72 193 0.0 2.0 0.00 0.01 0.01 71 1012.3
20260507021004 72 196 0.0 2.0 0.00 0.01 0.01 70 1012.2
20260507020504 72 199 0.0 0.0 0.00 0.01 0.01 70 1012.2
20260507015508 72 194 0.0 2.0 0.00 0.01 0.01 70 1012.3
20260507015008 72 193 0.0 2.0 0.00 0.01 0.01 71 1012.2
20260507014009 72 193 0.0 2.0 0.00 0.01 0.01 71 1012.3
20260507013507 72 190 0.0 0.0 0.00 0.01 0.01 72 1012.4
20260507012510 71 189 0.0 0.0 0.00 0.01 0.01 72 1012.3
20260507012009 71 189 0.0 1.0 0.00 0.01 0.01 74 1012.3
20260507011525 71 190 0.0 1.0 0.00 0.01 0.01 75 1012.3
20260507011009 71 157 0.0 0.0 0.00 0.01 0.01 73 1012.3
20260507010509 71 157 0.0 0.0 0.00 0.01 0.01 75 1012.3
20260507010038 71 157 0.0 0.0 0.00 0.01 0.01 75 1012.3
20260507005505 71 157 0.0 0.0 0.00 0.01 0.01 74 1012.3
20260507005009 71 157 0.0 0.0 0.00 0.01 0.01 74 1012.3
20260507004006 71 157 0.0 0.0 0.00 0.01 0.01 73 1012.4
20260507003506 72 157 0.0 0.0 0.00 0.01 0.01 73 1012.4
20260507003025 72 157 0.0 0.0 0.00 0.01 0.01 72 1012.4
20260507002507 72 157 0.0 0.0 0.00 0.01 0.01 72 1012.3
20260507002016 72 157 0.0 0.0 0.00 0.01 0.01 72 1012.1
20260507001010 73 157 0.0 0.0 0.00 0.01 0.01 69 1012.1
20260507000508 73 157 0.0 0.0 0.00 0.01 0.01 70 1012.2
20260507000026 73 157 0.0 0.0 0.00 0.01 0.01 69 1012.3
20260506235508 74 157 0.0 0.0 0.00 0.01 0.01 69 1012.2
20260506235011 74 157 0.0 0.0 0.00 0.01 0.01 67 1012.0
20260506234519 74 157 0.0 5.0 0.00 0.01 0.01 66 1011.9
20260506234005 75 157 0.0 5.0 0.00 0.01 0.01 66 1011.8
20260506233507 75 210 0.0 0.0 0.00 0.01 0.01 65 1011.9
20260506233024 76 210 0.0 2.0 0.00 0.01 0.01 65 1012.0
20260506232507 76 216 0.0 2.0 0.00 0.01 0.01 64 1011.9
20260506232008 76 216 0.0 2.0 0.00 0.01 0.01 64 1012.0
20260506231012 76 194 0.0 3.0 0.00 0.01 0.01 63 1011.9
20260506230028 76 177 1.0 2.0 0.00 0.01 0.01 63 1012.0
20260506225508 77 238 0.0 2.0 0.00 0.01 0.01 65 1012.0
20260506225008 77 248 0.0 2.0 0.00 0.01 0.01 63 1012.0
20260506224525 76 215 0.0 2.0 0.00 0.01 0.01 64 1012.0
20260506224006 76 199 0.0 2.0 0.00 0.01 0.01 64 1011.8
20260506223504 77 190 1.0 4.0 0.00 0.01 0.01 63 1011.7
20260506223019 77 190 1.0 4.0 0.00 0.01 0.01 63 1011.8
20260506222507 77 199 0.0 3.0 0.00 0.01 0.01 63 1011.5
20260506222005 77 213 1.0 3.0 0.00 0.01 0.01 63 1011.4
20260506221003 77 219 1.0 6.0 0.00 0.01 0.01 63 1011.6
20260506220503 77 215 2.0 6.0 0.00 0.01 0.01 63 1011.5
20260506220012 77 207 1.0 3.0 0.00 0.01 0.01 63 1011.5
20260506215503 76 202 1.0 3.0 0.00 0.01 0.01 66 1011.6
20260506215005 76 252 0.0 3.0 0.00 0.01 0.01 67 1011.6
20260506214006 76 198 2.0 4.0 0.00 0.01 0.01 67 1011.8
20260506213508 76 196 0.0 4.0 0.00 0.01 0.01 67 1011.8
20260506213016 75 226 0.0 3.0 0.00 0.01 0.01 67 1011.9
20260506212507 75 246 0.0 3.0 0.00 0.01 0.01 70 1012.0
20260506212007 76 209 0.0 2.0 0.00 0.01 0.01 68 1011.8
20260506211524 75 202 1.0 3.0 0.00 0.01 0.01 70 1012.1
20260506211007 76 193 0.0 3.0 0.00 0.01 0.01 70 1012.1
20260506210503 75 194 0.0 5.0 0.00 0.01 0.01 73 1012.1
20260506205504 74 257 0.0 5.0 0.00 0.01 0.01 74 1011.9
20260506205004 74 198 0.0 2.0 0.00 0.01 0.01 77 1012.0
20260506204008 73 253 0.0 2.0 0.00 0.01 0.01 79 1012.1
20260506203508 72 279 0.0 0.0 0.01 0.01 0.01 80 1012.2
20260506202508 72 268 0.0 0.0 0.01 0.01 0.01 82 1012.5
20260506202008 71 263 0.0 0.0 0.01 0.01 0.01 81 1012.2
20260506201528 71 263 0.0 2.0 0.01 0.01 0.01 81 1012.2
20260506201008 71 261 0.0 2.0 0.01 0.01 0.01 83 1012.3
20260506200509 70 192 0.0 2.0 0.01 0.01 0.01 85 1011.6
20260506200021 70 192 0.0 2.0 0.01 0.01 0.01 85 1011.9
20260506195503 69 197 0.0 2.0 0.01 0.01 0.01 86 1011.9
20260506195004 69 183 0.0 2.0 0.01 0.01 0.01 88 1012.4
20260506194509 68 198 1.0 2.0 0.01 0.01 0.01 86 1013.2
20260506194004 68 207 0.0 2.0 0.01 0.01 0.01 86 1013.4
20260506193504 69 214 0.0 2.0 0.00 0.00 0.00 84 1013.5
20260506192504 71 242 0.0 4.0 0.00 0.00 0.00 78 1013.7
20260506192007 73 188 0.0 4.0 0.00 0.00 0.00 71 1013.7
20260506191006 75 319 1.0 4.0 0.00 0.00 0.00 63 1014.3
20260506190508 76 277 1.0 4.0 0.00 0.00 0.00 63 1014.5
20260506190029 76 286 1.0 4.0 0.00 0.00 0.00 61 1014.4
20260506185508 77 211 0.0 6.0 0.00 0.00 0.00 62 1014.2
20260506185006 77 205 1.0 6.0 0.00 0.00 0.00 60 1014.2
20260506184524 77 236 1.0 9.0 0.00 0.00 0.00 59 1014.2
20260506184004 77 186 2.0 9.0 0.00 0.00 0.00 59 1014.2
20260506183503 77 190 2.0 4.0 0.00 0.00 0.00 60 1014.1
20260506182504 77 208 1.0 5.0 0.00 0.00 0.00 59 1014.3
20260506182008 77 248 1.0 5.0 0.00 0.00 0.00 59 1014.3
20260506181008 78 209 1.0 6.0 0.00 0.00 0.00 59 1014.1
20260506180509 78 225 2.0 6.0 0.00 0.00 0.00 59 1014.2
20260506175511 78 233 2.0 6.0 0.00 0.00 0.00 59 1014.4
20260506175008 77 192 0.0 6.0 0.00 0.00 0.00 62 1014.5
20260506174525 77 178 2.0 8.0 0.00 0.00 0.00 60 1014.5
20260506174007 77 255 3.0 8.0 0.00 0.00 0.00 60 1014.5
20260506173510 77 165 2.0 9.0 0.00 0.00 0.00 61 1014.5
20260506172504 76 191 2.0 5.0 0.00 0.00 0.00 62 1014.5
20260506172004 76 188 1.0 6.0 0.00 0.00 0.00 63 1014.6
20260506171005 75 192 2.0 5.0 0.00 0.00 0.00 62 1014.8
20260506170511 74 261 0.0 4.0 0.00 0.00 0.00 65 1014.9
20260506165508 73 212 1.0 4.0 0.00 0.00 0.00 65 1014.9
20260506165008 73 277 1.0 3.0 0.00 0.00 0.00 67 1014.9
20260506164525 72 202 0.0 2.0 0.00 0.00 0.00 67 1014.9
20260506164009 72 204 0.0 2.0 0.00 0.00 0.00 66 1015.1
20260506163509 72 205 0.0 4.0 0.00 0.00 0.00 66 1015.1
20260506163024 72 183 1.0 4.0 0.00 0.00 0.00 64 1015.1
20260506162509 72 201 0.0 5.0 0.00 0.00 0.00 65 1015.2
20260506162003 72 196 2.0 5.0 0.00 0.00 0.00 64 1015.0
20260506161005 72 186 1.0 4.0 0.00 0.00 0.00 65 1015.1
20260506160507 72 205 0.0 2.0 0.00 0.00 0.00 65 1015.1
20260506155508 72 213 1.0 4.0 0.00 0.00 0.00 65 1015.0
20260506155009 72 190 1.0 4.0 0.00 0.00 0.00 65 1014.9
20260506154009 71 198 1.0 7.0 0.00 0.00 0.00 66 1014.9
20260506153508 70 198 1.0 7.0 0.00 0.00 0.00 66 1014.9
20260506152510 70 192 2.0 7.0 0.00 0.00 0.00 67 1014.9
20260506152011 70 214 1.0 7.0 0.00 0.00 0.00 67 1014.9
20260506151527 70 199 2.0 6.0 0.00 0.00 0.00 67 1014.7
20260506151010 70 157 2.0 8.0 0.00 0.00 0.00 67 1014.6
20260506150505 70 219 1.0 8.0 0.00 0.00 0.00 67 1014.7
20260506145507 70 180 1.0 5.0 0.00 0.00 0.00 66 1015.0
20260506145007 70 249 0.0 4.0 0.00 0.00 0.00 67 1015.0
20260506144013 70 188 2.0 4.0 0.00 0.00 0.00 66 1014.9
20260506143510 70 162 1.0 4.0 0.00 0.00 0.00 66 1014.9
20260506142511 69 266 0.0 6.0 0.00 0.00 0.00 69 1015.2
20260506142014 69 196 1.0 6.0 0.00 0.00 0.00 68 1015.3
20260506141011 68 241 2.0 6.0 0.00 0.00 0.00 69 1015.3
20260506140510 68 194 1.0 6.0 0.00 0.00 0.00 69 1015.3
20260506140032 68 219 0.0 5.0 0.00 0.00 0.00 70 1015.4
20260506135506 68 239 0.0 7.0 0.00 0.00 0.00 71 1015.3
20260506135006 68 190 1.0 7.0 0.00 0.00 0.00 71 1015.2
20260506134007 67 210 1.0 3.0 0.00 0.00 0.00 74 1015.4
20260506133506 66 193 0.0 2.0 0.00 0.00 0.00 75 1015.5
20260506133028 66 200 0.0 0.0 0.00 0.00 0.00 77 1015.7
20260506132508 65 200 0.0 1.0 0.00 0.00 0.00 78 1015.7
20260506132008 65 200 0.0 3.0 0.00 0.00 0.00 77 1015.7
20260506131522 65 198 0.0 3.0 0.00 0.00 0.00 77 1015.6
20260506131007 65 204 0.0 2.0 0.00 0.00 0.00 77 1015.6
20260506130512 65 203 0.0 2.0 0.00 0.00 0.00 78 1015.5
20260506130026 65 189 0.0 3.0 0.00 0.00 0.00 78 1015.2
20260506125507 64 186 0.0 3.0 0.00 0.00 0.00 78 1015.1
20260506125012 64 187 0.0 2.0 0.00 0.00 0.00 79 1015.0
20260506124006 64 196 1.0 3.0 0.00 0.00 0.00 79 1014.9
20260506123504 64 196 1.0 3.0 0.00 0.00 0.00 80 1014.8
20260506123019 63 195 0.0 3.0 0.00 0.00 0.00 81 1015.0
20260506122510 63 234 0.0 3.0 0.00 0.00 0.00 81 1014.8
20260506122011 63 200 0.0 4.0 0.00 0.00 0.00 81 1014.9
20260506121522 62 185 1.0 4.0 0.00 0.00 0.00 81 1014.9
20260506121010 62 198 1.0 4.0 0.00 0.00 0.00 81 1014.8
20260506120511 62 195 1.0 3.0 0.00 0.00 0.00 82 1014.8
20260506120026 62 188 1.0 3.0 0.00 0.00 0.00 82 1014.8
20260506115509 62 194 0.0 3.0 0.00 0.00 0.00 82 1014.6
20260506115013 62 185 0.0 3.0 0.00 0.00 0.00 83 1014.6
20260506114536 61 190 1.0 2.0 0.00 0.00 0.00 83 1014.7
20260506114008 61 182 1.0 2.0 0.00 0.00 0.00 83 1014.7
20260506113509 61 209 0.0 2.0 0.00 0.00 0.00 83 1014.7
20260506113019 61 198 0.0 2.0 0.00 0.00 0.00 83 1014.8
20260506112510 61 209 0.0 2.0 0.00 0.00 0.00 83 1014.7
20260506112007 61 183 0.0 2.0 0.00 0.00 0.00 83 1014.7
20260506111522 61 181 0.0 2.0 0.00 0.00 0.00 84 1014.7
20260506111013 61 196 1.0 4.0 0.00 0.00 0.00 83 1014.7
20260506110512 61 190 1.0 4.0 0.00 0.00 0.00 84 1014.7
20260506110027 61 205 0.0 3.0 0.00 0.00 0.00 84 1014.6
20260506105513 61 204 1.0 3.0 0.00 0.00 0.00 84 1014.7
20260506105010 60 187 0.0 3.0 0.00 0.00 0.00 85 1014.7
20260506104526 60 198 0.0 2.0 0.00 0.00 0.00 85 1014.5
20260506104005 60 196 0.0 2.0 0.00 0.00 0.00 86 1014.6
20260506103509 60 209 0.0 2.0 0.00 0.00 0.00 86 1014.5
20260506103022 60 186 0.0 2.0 0.00 0.00 0.00 86 1014.6
20260506102510 59 195 0.0 2.0 0.00 0.00 0.00 87 1014.6
20260506101522 59 192 0.0 2.0 0.00 0.00 0.00 87 1014.6
20260506100025 59 192 0.0 1.0 0.00 0.00 0.00 87 1014.8
20260506094520 59 192 0.0 1.0 0.00 0.00 0.00 87 1015.0
20260506094007 59 192 0.0 1.0 0.00 0.00 0.00 87 1015.0
20260506093503 59 194 0.0 1.0 0.00 0.00 0.00 86 1015.1
20260506093016 59 194 0.0 0.0 0.00 0.00 0.00 86 1015.2
20260506092507 59 194 0.0 0.0 0.00 0.00 0.00 86 1015.2
20260506092006 60 194 0.0 1.0 0.00 0.00 0.00 86 1015.2
20260506091007 60 196 0.0 0.0 0.00 0.00 0.00 86 1015.2
20260506090508 60 196 0.0 0.0 0.00 0.00 0.00 85 1015.1
20260506090021 60 196 0.0 2.0 0.00 0.00 0.00 85 1015.1
20260506085507 60 196 0.0 2.0 0.00 0.00 0.00 85 1014.9
20260506085008 60 195 0.0 2.0 0.00 0.00 0.00 85 1014.9
20260506084523 60 200 0.0 2.0 0.00 0.00 0.00 85 1014.9
20260506084008 60 190 0.0 2.0 0.00 0.00 0.00 85 1015.1
20260506083506 60 190 0.0 2.0 0.00 0.00 0.00 85 1015.2
20260506083022 60 188 0.0 2.0 0.00 0.00 0.00 85 1015.0
20260506082506 60 196 0.0 2.0 0.00 0.00 0.00 85 1014.9
20260506082009 60 196 0.0 2.0 0.00 0.00 0.00 85 1014.9
20260506081007 60 199 0.0 2.0 0.00 0.00 0.00 84 1014.7
20260506080508 60 199 0.0 2.0 0.00 0.00 0.00 84 1014.7
20260506073509 60 201 0.0 2.0 0.00 0.00 0.00 83 1015.0
20260506073025 60 201 0.0 2.0 0.00 0.00 0.00 83 1015.0
20260506072512 60 196 0.0 2.0 0.00 0.00 0.00 83 1015.0
20260506072010 60 191 0.0 2.0 0.00 0.00 0.00 83 1015.0
20260506071524 61 189 0.0 2.0 0.00 0.00 0.00 82 1014.9
20260506071006 61 195 0.0 2.0 0.00 0.00 0.00 82 1015.0
20260506070508 61 196 0.0 2.0 0.00 0.00 0.00 82 1014.9
20260506062504 61 213 1.0 2.0 0.00 0.00 0.00 80 1015.2
20260506062004 62 192 0.0 2.0 0.00 0.00 0.00 80 1015.4
20260506061516 62 197 0.0 2.0 0.00 0.00 0.00 80 1015.5
20260506061008 62 200 0.0 2.0 0.00 0.00 0.00 80 1015.5
20260506060504 62 194 0.0 4.0 0.00 0.00 0.00 79 1015.5
20260506051008 63 192 1.0 4.0 0.00 0.00 0.00 77 1015.8
20260506050506 63 202 1.0 4.0 0.00 0.00 0.00 76 1015.9
20260506045007 64 194 2.0 6.0 0.00 0.00 0.00 76 1015.9
20260506044008 64 200 1.0 5.0 0.00 0.00 0.00 76 1016.0
20260506043508 64 200 2.0 5.0 0.00 0.00 0.00 76 1016.0
20260506043025 64 202 2.0 6.0 0.00 0.00 0.00 75 1016.0
20260506042505 64 196 1.0 6.0 0.00 0.00 0.00 75 1016.0
20260506042003 64 210 1.0 5.0 0.00 0.00 0.00 75 1016.0
20260506041511 64 182 1.0 5.0 0.00 0.00 0.00 75 1016.1
20260506041004 64 195 2.0 5.0 0.00 0.00 0.00 75 1016.1
20260506040506 64 177 1.0 6.0 0.00 0.00 0.00 74 1016.1
20260506040016 65 201 2.0 6.0 0.00 0.00 0.00 74 1016.0
20260506035504 65 207 1.0 4.0 0.00 0.00 0.00 74 1015.9
20260506035007 65 182 2.0 6.0 0.00 0.00 0.00 74 1016.0
20260506034520 65 183 1.0 6.0 0.00 0.00 0.00 73 1016.1
20260506034005 65 200 2.0 5.0 0.00 0.00 0.00 73 1016.2
20260506033505 65 240 1.0 7.0 0.00 0.00 0.00 73 1016.2
20260506033032 65 150 2.0 7.0 0.00 0.00 0.00 73 1016.1
20260506032508 65 200 1.0 5.0 0.00 0.00 0.00 72 1016.2
20260506032011 65 195 2.0 5.0 0.00 0.00 0.00 72 1016.2
20260506031517 66 196 1.0 5.0 0.00 0.00 0.00 71 1016.3
20260506031005 66 227 2.0 5.0 0.00 0.00 0.00 71 1016.3
20260506030506 66 196 2.0 5.0 0.00 0.00 0.00 71 1016.4
20260506030035 66 182 0.0 6.0 0.00 0.00 0.00 70 1016.4
20260506025504 66 266 2.0 6.0 0.00 0.00 0.00 69 1016.4
20260506025004 66 176 1.0 4.0 0.00 0.00 0.00 69 1016.4
20260506024527 66 184 2.0 4.0 0.00 0.00 0.00 68 1016.4
20260506024005 67 186 1.0 4.0 0.00 0.00 0.00 67 1016.4
20260506023508 67 190 1.0 4.0 0.00 0.00 0.00 67 1016.4
20260506023023 67 189 2.0 4.0 0.00 0.00 0.00 67 1016.3